AFR719 GOBD-LFPG

Flight info

Callsign AFR719
Flight time N/A
Altitude 37000
Route SAKLI1B SAKLI UR975 SEPEL DCT MINBA DCT ZRT UR975 DIDAN/N0485F380 UR975 ADM UG850 MAK UB11 MABAP UR722 SAK UG5 KORIS L27 VJF DCT GOXIP DCT LUSEM DCT NIGAG DCT ETPIL DCT ROMGO
Aircraft B77W/H-SDE1E2E3FGHIJ2J3J4J5M1RWXY/LB1D1

Departure

Time 2026-04-25 19:01
Airport Blaise Diagne International Airport (GOBD)

Arrival

Time N/A
Airport Charles de Gaulle International Airport (LFPG)
Time Latitude Longitude Altitude Speed Heading
2026-04-25 18:18 14.66979 -17.06848 307 ft 0 kts 62°
2026-04-25 18:30 14.66983 -17.06840 309 ft 1 kts 62°
2026-04-25 18:30 14.66984 -17.06838 309 ft 0 kts 62°
2026-04-25 18:30 14.66985 -17.06837 309 ft 0 kts 62°
2026-04-25 18:47 14.66981 -17.06845 307 ft 4 kts 64°
2026-04-25 18:47 14.66970 -17.06870 306 ft 4 kts 72°
2026-04-25 18:47 14.66963 -17.06897 307 ft 4 kts 82°
2026-04-25 18:48 14.66962 -17.06923 307 ft 4 kts 96°
2026-04-25 18:48 14.66967 -17.06949 306 ft 4 kts 115°
2026-04-25 18:48 14.66979 -17.06969 305 ft 4 kts 142°
2026-04-25 18:48 14.66997 -17.06979 305 ft 3 kts 177°
2026-04-25 18:49 14.67000 -17.06979 305 ft 0 kts 179°
2026-04-25 18:52 14.66998 -17.06979 305 ft 0 kts 179°
2026-04-25 18:53 14.66963 -17.06980 307 ft 11 kts 180°
2026-04-25 18:53 14.66889 -17.06978 310 ft 11 kts 179°
2026-04-25 18:53 14.66815 -17.06977 309 ft 11 kts 178°
2026-04-25 18:53 14.66740 -17.06976 309 ft 11 kts 179°
2026-04-25 18:54 14.66685 -17.06986 307 ft 2 kts 207°
2026-04-25 18:54 14.66671 -17.07007 308 ft 5 kts 250°
2026-04-25 18:54 14.66659 -17.07056 310 ft 9 kts 242°
2026-04-25 18:55 14.66595 -17.07086 306 ft 13 kts 181°
2026-04-25 18:55 14.66553 -17.07087 306 ft 8 kts 181°
2026-04-25 18:55 14.66476 -17.07086 306 ft 13 kts 179°
2026-04-25 18:55 14.66408 -17.07085 306 ft 8 kts 179°
2026-04-25 18:56 14.66352 -17.07084 309 ft 8 kts 179°
2026-04-25 18:56 14.66297 -17.07083 310 ft 8 kts 179°
2026-04-25 18:56 14.66241 -17.07082 309 ft 8 kts 179°
2026-04-25 18:56 14.66186 -17.07082 308 ft 8 kts 180°
2026-04-25 18:57 14.66130 -17.07082 306 ft 8 kts 180°
2026-04-25 18:57 14.66075 -17.07082 309 ft 8 kts 180°
2026-04-25 18:57 14.66019 -17.07082 307 ft 8 kts 179°
2026-04-25 18:57 14.65981 -17.07082 306 ft 8 kts 179°
2026-04-25 18:58 14.65908 -17.07081 308 ft 8 kts 179°
2026-04-25 18:58 14.65796 -17.07078 308 ft 8 kts 179°
2026-04-25 18:58 14.65741 -17.07077 306 ft 8 kts 179°
2026-04-25 18:59 14.65630 -17.07078 306 ft 8 kts 180°
2026-04-25 18:59 14.65529 -17.07162 307 ft 17 kts 264°
2026-04-25 19:00 14.65559 -17.07272 308 ft 5 kts 346°
2026-04-25 19:00 14.65581 -17.07271 307 ft 0 kts
2026-04-25 19:01 14.66427 -17.07276 305 ft 145 kts 359°
2026-04-25 19:01 14.67663 -17.07286 616 ft 194 kts 359°
2026-04-25 19:01 14.69091 -17.07285 1459 ft 216 kts
2026-04-25 19:01 14.70681 -17.07309 2206 ft 244 kts 360°
2026-04-25 19:02 14.74083 -17.07399 3654 ft 242 kts 358°
2026-04-25 19:02 14.75777 -17.07442 4253 ft 248 kts 359°
2026-04-25 19:02 14.77523 -17.07431 4811 ft 254 kts 359°
2026-04-25 19:03 14.79914 -17.07423 5585 ft 260 kts 359°
2026-04-25 19:03 14.82929 -17.07438 6598 ft 265 kts 358°
2026-04-25 19:03 14.84784 -17.07450 7159 ft 268 kts 357°
2026-04-25 19:04 14.88604 -17.07486 8118 ft 284 kts 358°
2026-04-25 19:04 14.90615 -17.07506 8599 ft 292 kts 358°
2026-04-25 19:05 14.94766 -17.07544 9709 ft 304 kts 358°
2026-04-25 19:05 14.99141 -17.07587 10412 ft 331 kts 358°
2026-04-25 19:05 15.01513 -17.07611 10564 ft 351 kts 358°
2026-04-25 19:06 15.03994 -17.07635 10744 ft 371 kts 358°
2026-04-25 19:06 15.09329 -17.07685 11616 ft 390 kts 358°
2026-04-25 19:06 15.12075 -17.07709 12184 ft 397 kts 358°
2026-04-25 19:07 15.17651 -17.07760 13443 ft 405 kts 357°
2026-04-25 19:07 15.20475 -17.07786 14054 ft 408 kts 357°
2026-04-25 19:08 15.26192 -17.07840 14868 ft 413 kts 357°
2026-04-25 19:08 15.29032 -17.07867 14867 ft 413 kts 357°
2026-04-25 19:09 15.37106 -17.05404 14864 ft 420 kts 40°
2026-04-25 19:09 15.38565 -17.04078 14873 ft 422 kts 40°
2026-04-25 19:09 15.43807 -16.99393 14868 ft 428 kts 39°
2026-04-25 19:10 15.46086 -16.97382 15028 ft 431 kts 39°
2026-04-25 19:10 15.48344 -16.95398 15706 ft 430 kts 39°
2026-04-25 19:10 15.50624 -16.93398 16392 ft 430 kts 38°
2026-04-25 19:10 15.52914 -16.91392 16961 ft 433 kts 38°
2026-04-25 19:11 15.55230 -16.89364 17457 ft 437 kts 38°
2026-04-25 19:11 15.57563 -16.87322 17964 ft 441 kts 38°
2026-04-25 19:11 15.59931 -16.85247 18453 ft 444 kts 38°
2026-04-25 19:11 15.62297 -16.83173 18940 ft 446 kts 38°
2026-04-25 19:12 15.64640 -16.81118 19434 ft 447 kts 38°
2026-04-25 19:12 15.67020 -16.79030 19906 ft 449 kts 38°
2026-04-25 19:12 15.69417 -16.76926 20374 ft 452 kts 38°
2026-04-25 19:12 15.71823 -16.74814 20813 ft 454 kts 38°
2026-04-25 19:13 15.74245 -16.72687 21253 ft 457 kts 38°
2026-04-25 19:13 15.76680 -16.70548 21725 ft 459 kts 38°
2026-04-25 19:13 15.79120 -16.68404 22154 ft 461 kts 38°
2026-04-25 19:13 15.81578 -16.66243 22570 ft 464 kts 38°
2026-04-25 19:14 15.84051 -16.64068 22981 ft 466 kts 38°
2026-04-25 19:14 15.84855 -16.63361 23138 ft 467 kts 38°
2026-04-25 19:14 15.89024 -16.59693 23736 ft 471 kts 38°
2026-04-25 19:14 15.91501 -16.57512 24058 ft 473 kts 38°
2026-04-25 19:15 15.94017 -16.55297 24378 ft 475 kts 38°
2026-04-25 19:15 15.96542 -16.53071 24708 ft 477 kts 38°
2026-04-25 19:15 15.99076 -16.50838 25035 ft 479 kts 38°
2026-04-25 19:15 16.01625 -16.48591 25345 ft 481 kts 37°
2026-04-25 19:16 16.04189 -16.46330 25662 ft 483 kts 37°
2026-04-25 19:16 16.06808 -16.44132 25936 ft 484 kts 34°
2026-04-25 19:16 16.09536 -16.42066 26240 ft 485 kts 32°
2026-04-25 19:16 16.12312 -16.40062 26546 ft 487 kts 31°
2026-04-25 19:17 16.15109 -16.38062 26849 ft 488 kts 31°
2026-04-25 19:17 16.17911 -16.36045 27149 ft 491 kts 31°
2026-04-25 19:17 16.20709 -16.34006 27428 ft 493 kts 31°
2026-04-25 19:17 16.23517 -16.31939 27712 ft 495 kts 31°
2026-04-25 19:18 16.26326 -16.29858 27980 ft 497 kts 31°
2026-04-25 19:18 16.29144 -16.27765 28237 ft 499 kts 31°
2026-04-25 19:18 16.31933 -16.25692 28493 ft 500 kts 31°
2026-04-25 19:18 16.34773 -16.23582 28713 ft 502 kts 31°
2026-04-25 19:19 16.37622 -16.21466 28938 ft 504 kts 31°
2026-04-25 19:19 16.40488 -16.19337 29154 ft 506 kts 31°
2026-04-25 19:19 16.43356 -16.17206 29362 ft 507 kts 31°